MQT7MP LIRF-EDDL

Flight info

Callsign MQT7MP
Flight time 2h 1m
Altitude 34000
Route SOVAN DCT AMTEL DCT BORMI DCT UNIMI DCT KPT DCT VEKIR DCT HAREM/N0457F350 DCT LOHRE/N0460F360 Z850 ARPEG/N0406F240 Z850 ADEMI T854 DOMUX DOMUX1A
Aircraft A321/M-SDE3FGHIRWY/LB1

Departure

Time 2026-02-17 12:27
Airport Rome–Fiumicino Leonardo da Vinci International Airport (LIRF)

Arrival

Time 2026-02-17 14:28
Airport Düsseldorf Airport (EDDL)
Time Latitude Longitude Altitude Speed Heading
2026-02-17 11:33 41.79756 12.25505 18 ft 0 kts 115°
2026-02-17 12:11 41.79759 12.25495 19 ft 3 kts 115°
2026-02-17 12:11 41.79768 12.25471 20 ft 3 kts 115°
2026-02-17 12:11 41.79776 12.25450 19 ft 3 kts 99°
2026-02-17 12:11 41.79777 12.25436 18 ft 3 kts 35°
2026-02-17 12:12 41.79760 12.25424 22 ft 2 kts 25°
2026-02-17 12:12 41.79749 12.25417 18 ft 2 kts 27°
2026-02-17 12:12 41.79734 12.25407 19 ft 1 kts 27°
2026-02-17 12:12 41.79732 12.25405 19 ft 0 kts 27°
2026-02-17 12:19 41.79746 12.25415 18 ft 6 kts 27°
2026-02-17 12:19 41.79795 12.25447 20 ft 10 kts 25°
2026-02-17 12:20 41.79865 12.25492 19 ft 11 kts 25°
2026-02-17 12:20 41.79931 12.25532 18 ft 10 kts 25°
2026-02-17 12:20 41.79985 12.25570 20 ft 7 kts 45°
2026-02-17 12:20 41.79991 12.25626 18 ft 6 kts 102°
2026-02-17 12:21 41.79979 12.25671 19 ft 5 kts 112°
2026-02-17 12:21 41.79959 12.25727 19 ft 10 kts 116°
2026-02-17 12:21 41.79927 12.25824 21 ft 11 kts 99°
2026-02-17 12:21 41.79994 12.25898 19 ft 17 kts 23°
2026-02-17 12:22 41.80123 12.25976 18 ft 24 kts 25°
2026-02-17 12:22 41.80271 12.26069 14 ft 23 kts 23°
2026-02-17 12:22 41.80406 12.26153 15 ft 20 kts 24°
2026-02-17 12:23 41.80544 12.26292 16 ft 12 kts 69°
2026-02-17 12:23 41.80574 12.26401 17 ft 15 kts 70°
2026-02-17 12:23 41.80618 12.26564 15 ft 21 kts 70°
2026-02-17 12:23 41.80667 12.26743 15 ft 20 kts 70°
2026-02-17 12:24 41.80715 12.26919 10 ft 20 kts 70°
2026-02-17 12:24 41.80766 12.27032 10 ft 10 kts 29°
2026-02-17 12:24 41.80833 12.27029 11 ft 10 kts 340°
2026-02-17 12:24 41.80893 12.26999 11 ft 8 kts 339°
2026-02-17 12:25 41.80940 12.26973 13 ft 6 kts 332°
2026-02-17 12:25 41.80960 12.26933 11 ft 4 kts 284°
2026-02-17 12:25 41.80955 12.26911 12 ft 0 kts 248°
2026-02-17 12:26 41.80889 12.26671 13 ft 61 kts 249°
2026-02-17 12:26 41.80671 12.25893 17 ft 116 kts 249°
2026-02-17 12:26 41.80342 12.24712 28 ft 156 kts 252°
2026-02-17 12:27 41.79596 12.21944 1025 ft 160 kts 255°
2026-02-17 12:27 41.79212 12.20478 1336 ft 175 kts 265°
2026-02-17 12:27 41.79398 12.18861 1663 ft 180 kts 298°
2026-02-17 12:27 41.80116 12.17482 2110 ft 185 kts 313°
2026-02-17 12:28 41.80973 12.16157 2655 ft 186 kts 311°
2026-02-17 12:28 41.81778 12.14776 3174 ft 190 kts 310°
2026-02-17 12:28 41.82594 12.13363 3672 ft 193 kts 310°
2026-02-17 12:28 41.83414 12.11958 4221 ft 194 kts 311°
2026-02-17 12:29 41.84340 12.10619 4694 ft 194 kts 326°
2026-02-17 12:29 41.85559 12.09869 5017 ft 203 kts 346°
2026-02-17 12:29 41.87009 12.09386 5136 ft 228 kts 345°
2026-02-17 12:29 41.88612 12.08799 5511 ft 246 kts 345°
2026-02-17 12:30 41.90274 12.08173 6250 ft 250 kts 344°
2026-02-17 12:30 41.91960 12.07526 6997 ft 253 kts 344°
2026-02-17 12:30 41.93666 12.06888 7786 ft 255 kts 344°
2026-02-17 12:31 41.97163 12.05962 9374 ft 260 kts 354°
2026-02-17 12:31 41.98981 12.05795 10072 ft 266 kts 354°
2026-02-17 12:31 42.00912 12.05611 10270 ft 289 kts 354°
2026-02-17 12:31 42.02994 12.05409 10404 ft 312 kts 354°
2026-02-17 12:32 42.05232 12.05190 10536 ft 332 kts 354°
2026-02-17 12:32 42.07590 12.04961 10941 ft 343 kts 354°
2026-02-17 12:32 42.09984 12.04731 11615 ft 346 kts 354°
2026-02-17 12:32 42.12393 12.04499 12332 ft 348 kts 354°
2026-02-17 12:33 42.14818 12.04264 13019 ft 351 kts 353°
2026-02-17 12:33 42.16436 12.04106 13487 ft 352 kts 353°
2026-02-17 12:33 42.18871 12.03799 14134 ft 352 kts 349°
2026-02-17 12:33 42.21291 12.03252 14745 ft 353 kts 348°
2026-02-17 12:34 42.23724 12.02700 15366 ft 355 kts 348°
2026-02-17 12:34 42.26160 12.02151 15983 ft 356 kts 348°
2026-02-17 12:34 42.28607 12.01601 16594 ft 357 kts 348°
2026-02-17 12:35 42.33528 12.00492 17813 ft 360 kts 348°
2026-02-17 12:35 42.36004 11.99932 18359 ft 361 kts 348°
2026-02-17 12:35 42.38485 11.99371 18909 ft 361 kts 347°
2026-02-17 12:35 42.40961 11.98814 19494 ft 360 kts 347°
2026-02-17 12:36 42.43430 11.98261 20074 ft 360 kts 347°
2026-02-17 12:36 42.45900 11.97705 20651 ft 359 kts 347°
2026-02-17 12:36 42.48333 11.97155 21201 ft 359 kts 346°
2026-02-17 12:36 42.50792 11.96597 21742 ft 359 kts 346°
2026-02-17 12:37 42.53252 11.96038 22280 ft 359 kts 346°
2026-02-17 12:37 42.55713 11.95480 22818 ft 359 kts 346°
2026-02-17 12:37 42.58176 11.94920 23337 ft 359 kts 346°
2026-02-17 12:37 42.60641 11.94361 23689 ft 359 kts 346°
2026-02-17 12:38 42.63101 11.93808 23778 ft 358 kts 346°
2026-02-17 12:38 42.65555 11.93255 23792 ft 357 kts 346°
2026-02-17 12:38 42.68000 11.92701 23801 ft 357 kts 346°
2026-02-17 12:39 42.72897 11.91586 23807 ft 357 kts 346°
2026-02-17 12:39 42.75345 11.91027 23810 ft 357 kts 346°
2026-02-17 12:39 42.77802 11.90465 23969 ft 360 kts 346°
2026-02-17 12:39 42.80273 11.89901 24379 ft 359 kts 346°
2026-02-17 12:40 42.82742 11.89353 24797 ft 360 kts 346°
2026-02-17 12:40 42.85218 11.88819 25186 ft 360 kts 346°
2026-02-17 12:40 42.87691 11.88297 25584 ft 360 kts 346°
2026-02-17 12:40 42.90168 11.87773 25974 ft 360 kts 346°
2026-02-17 12:41 42.92643 11.87246 26299 ft 360 kts 346°
2026-02-17 12:41 42.95116 11.86716 26696 ft 359 kts 346°
2026-02-17 12:41 42.97576 11.86187 27220 ft 355 kts 346°
2026-02-17 12:41 42.99999 11.85666 27728 ft 351 kts 346°
2026-02-17 12:42 43.02395 11.85132 28231 ft 346 kts 345°
2026-02-17 12:42 43.04749 11.84514 28714 ft 342 kts 343°
2026-02-17 12:42 43.07060 11.83841 29162 ft 338 kts 343°
2026-02-17 12:43 43.11561 11.82468 29956 ft 332 kts 343°
2026-02-17 12:43 43.13819 11.81782 30242 ft 333 kts 343°
2026-02-17 12:43 43.16084 11.81105 30508 ft 334 kts 343°
2026-02-17 12:43 43.18356 11.80430 30775 ft 334 kts 343°
2026-02-17 12:44 43.20633 11.79758 31037 ft 335 kts 343°
2026-02-17 12:44 43.22918 11.79090 31298 ft 336 kts 343°
2026-02-17 12:44 43.25211 11.78419 31563 ft 337 kts 342°
2026-02-17 12:44 43.27505 11.77744 31832 ft 338 kts 342°
2026-02-17 12:45 43.29801 11.77069 32098 ft 338 kts 342°
2026-02-17 12:45 43.32108 11.76390 32381 ft 339 kts 342°
2026-02-17 12:45 43.34418 11.75708 32650 ft 340 kts 342°
2026-02-17 12:45 43.36703 11.75032 32930 ft 341 kts 342°
2026-02-17 12:46 43.39026 11.74345 33207 ft 342 kts 342°
2026-02-17 12:46 43.41357 11.73655 33475 ft 343 kts 342°
2026-02-17 12:46 43.43692 11.72964 33636 ft 344 kts 342°
2026-02-17 12:47 43.48365 11.71578 33715 ft 343 kts 342°
2026-02-17 12:47 43.53048 11.70186 33763 ft 344 kts 342°
2026-02-17 12:48 43.57719 11.68799 33798 ft 343 kts 342°
2026-02-17 12:48 43.62376 11.67410 33788 ft 342 kts 343°
2026-02-17 12:49 43.67028 11.66021 33791 ft 342 kts 343°
2026-02-17 12:49 43.71689 11.64635 33794 ft 342 kts 343°
2026-02-17 12:50 43.76331 11.63244 33791 ft 342 kts 342°
2026-02-17 12:50 43.80946 11.61856 33796 ft 341 kts 342°
2026-02-17 12:51 43.87908 11.59763 33802 ft 341 kts 343°
2026-02-17 12:51 43.92551 11.58360 33800 ft 342 kts 342°
2026-02-17 12:52 43.97181 11.56886 33797 ft 341 kts 342°
2026-02-17 12:52 44.01808 11.55387 33795 ft 341 kts 342°
2026-02-17 12:53 44.06435 11.53890 33785 ft 342 kts 342°
2026-02-17 12:53 44.09392 11.52938 33778 ft 342 kts 342°
2026-02-17 12:54 44.13565 11.51589 33787 ft 342 kts 342°
2026-02-17 12:55 44.20735 11.49272 33795 ft 361 kts 342°
2026-02-17 12:55 44.25678 11.47674 33800 ft 368 kts 342°
2026-02-17 12:56 44.30719 11.46054 33802 ft 374 kts 342°
2026-02-17 12:56 44.33197 11.45260 33795 ft 358 kts 342°
2026-02-17 12:56 44.35432 11.44541 33801 ft 349 kts 342°
2026-02-17 12:57 44.40134 11.43015 33808 ft 346 kts 342°
2026-02-17 12:57 44.44822 11.41487 33809 ft 346 kts 342°
2026-02-17 12:58 44.49504 11.39952 33813 ft 346 kts 342°
2026-02-17 12:58 44.54144 11.38434 33812 ft 346 kts 342°
2026-02-17 12:59 44.61125 11.36155 33833 ft 346 kts 343°
2026-02-17 12:59 44.65810 11.34627 33833 ft 345 kts 343°
2026-02-17 13:00 44.70516 11.33081 33823 ft 345 kts 343°
2026-02-17 13:00 44.75190 11.31547 33809 ft 345 kts 343°
2026-02-17 13:01 44.79858 11.30012 33819 ft 344 kts 343°
2026-02-17 13:01 44.84520 11.28472 33799 ft 344 kts 343°
2026-02-17 13:02 44.89136 11.26952 33792 ft 344 kts 343°
2026-02-17 13:03 44.96114 11.24643 33798 ft 343 kts 343°
2026-02-17 13:03 45.00764 11.23097 33791 ft 343 kts 343°
2026-02-17 13:04 45.05412 11.21549 33796 ft 343 kts 343°
2026-02-17 13:04 45.10060 11.20008 33800 ft 343 kts 343°
2026-02-17 13:05 45.14679 11.18469 33791 ft 343 kts 343°
2026-02-17 13:05 45.19323 11.16911 33782 ft 343 kts 343°
2026-02-17 13:06 45.23966 11.15352 33776 ft 343 kts 343°
2026-02-17 13:06 45.28607 11.13799 33774 ft 343 kts 343°
2026-02-17 13:07 45.35565 11.11470 33779 ft 342 kts 343°
2026-02-17 13:07 45.40203 11.09917 33776 ft 342 kts 343°
2026-02-17 13:08 45.44840 11.08359 33774 ft 343 kts 343°
2026-02-17 13:08 45.49478 11.06790 33770 ft 343 kts 343°
2026-02-17 13:09 45.54122 11.05213 33759 ft 343 kts 343°
2026-02-17 13:09 45.58755 11.03644 33752 ft 344 kts 343°
2026-02-17 13:10 45.63412 11.02058 33743 ft 345 kts 343°
2026-02-17 13:11 45.70318 10.99704 33730 ft 346 kts 343°
2026-02-17 13:11 45.75032 10.98100 33717 ft 347 kts 343°
2026-02-17 13:12 45.79718 10.96499 33716 ft 348 kts 342°
2026-02-17 13:12 45.84435 10.94883 33715 ft 349 kts 342°
2026-02-17 13:13 45.89165 10.93270 33710 ft 349 kts 343°
2026-02-17 13:13 45.93916 10.91646 33713 ft 352 kts 343°
2026-02-17 13:14 45.98674 10.90009 33711 ft 352 kts 343°
2026-02-17 13:14 46.03450 10.88361 33721 ft 353 kts 342°
2026-02-17 13:15 46.10581 10.85899 33728 ft 353 kts 342°
2026-02-17 13:15 46.15402 10.84234 33740 ft 355 kts 342°
2026-02-17 13:16 46.20185 10.82581 33732 ft 355 kts 342°
2026-02-17 13:16 46.24165 10.81197 33741 ft 354 kts 342°
2026-02-17 13:17 46.28915 10.79537 33745 ft 353 kts 342°
2026-02-17 13:17 46.33539 10.77930 33744 ft 351 kts 342°
2026-02-17 13:18 46.38272 10.76281 33764 ft 350 kts 342°
2026-02-17 13:19 46.45337 10.73810 33796 ft 346 kts 342°
2026-02-17 13:19 46.50014 10.72166 33813 ft 347 kts 342°
2026-02-17 13:20 46.54680 10.70525 33817 ft 343 kts 342°
2026-02-17 13:20 46.59343 10.68885 33819 ft 343 kts 342°
2026-02-17 13:21 46.63988 10.67256 33819 ft 342 kts 342°
2026-02-17 13:21 46.68585 10.65641 33823 ft 343 kts 341°
2026-02-17 13:22 46.73210 10.64004 33820 ft 341 kts 342°
2026-02-17 13:22 46.77828 10.62362 33828 ft 340 kts 342°
2026-02-17 13:23 46.84733 10.59906 33825 ft 338 kts 341°
2026-02-17 13:23 46.89312 10.58277 33834 ft 338 kts 341°
2026-02-17 13:24 46.93807 10.56681 33837 ft 338 kts 341°
2026-02-17 13:24 46.98364 10.55060 33833 ft 336 kts 341°
2026-02-17 13:25 47.02905 10.53430 33837 ft 336 kts 341°
2026-02-17 13:25 47.07442 10.51803 33844 ft 335 kts 341°
2026-02-17 13:26 47.11983 10.50174 33848 ft 336 kts 341°
2026-02-17 13:27 47.18710 10.47758 33832 ft 334 kts 341°
2026-02-17 13:27 47.19446 10.47494 33848 ft 335 kts 341°
2026-02-17 13:28 47.23984 10.46089 33826 ft 330 kts 341°
2026-02-17 13:28 47.28426 10.44387 33829 ft 331 kts 340°
2026-02-17 13:29 47.32882 10.42658 33835 ft 332 kts 340°
2026-02-17 13:29 47.37375 10.40993 33819 ft 332 kts 341°
2026-02-17 13:30 47.41880 10.39363 33844 ft 334 kts 341°
2026-02-17 13:30 47.46311 10.37763 33838 ft 334 kts 341°
2026-02-17 13:31 47.53050 10.35303 33851 ft 334 kts 341°
2026-02-17 13:31 47.57565 10.33651 33863 ft 335 kts 341°
2026-02-17 13:32 47.62060 10.32007 33870 ft 335 kts 341°
2026-02-17 13:32 47.66583 10.30342 33863 ft 335 kts 340°
2026-02-17 13:33 47.71114 10.28679 33864 ft 335 kts 341°
2026-02-17 13:33 47.75187 10.27199 33854 ft 336 kts 341°
2026-02-17 13:34 47.79727 10.25524 33851 ft 336 kts 340°
2026-02-17 13:35 47.86549 10.22992 33844 ft 337 kts 340°
2026-02-17 13:35 47.91124 10.21353 33850 ft 339 kts 341°
2026-02-17 13:36 47.95701 10.19870 33858 ft 340 kts 342°
2026-02-17 13:36 48.00347 10.18401 33857 ft 341 kts 342°
2026-02-17 13:37 48.04960 10.16921 33860 ft 342 kts 342°
2026-02-17 13:37 48.09617 10.15411 33855 ft 343 kts 342°
2026-02-17 13:38 48.14284 10.13895 33855 ft 344 kts 342°
2026-02-17 13:38 48.18963 10.12368 33853 ft 344 kts 342°
2026-02-17 13:39 48.25983 10.10065 33854 ft 344 kts 341°
2026-02-17 13:39 48.30610 10.08542 33852 ft 344 kts 341°
2026-02-17 13:40 48.35295 10.07005 33854 ft 344 kts 341°
2026-02-17 13:40 48.39933 10.05482 33850 ft 344 kts 341°
2026-02-17 13:41 48.44580 10.03948 33846 ft 344 kts 341°
2026-02-17 13:41 48.49268 10.02402 33845 ft 345 kts 341°
2026-02-17 13:42 48.53921 10.00866 33845 ft 346 kts 341°
2026-02-17 13:43 48.60945 9.98528 33835 ft 348 kts 341°
2026-02-17 13:43 48.65683 9.96964 33837 ft 349 kts 341°
2026-02-17 13:44 48.70439 9.95385 33837 ft 350 kts 341°
2026-02-17 13:44 48.75196 9.93788 33838 ft 351 kts 341°
2026-02-17 13:45 48.79966 9.92197 33840 ft 352 kts 341°
2026-02-17 13:45 48.84748 9.90596 33842 ft 352 kts 341°
2026-02-17 13:46 48.89534 9.88982 33844 ft 352 kts 341°
2026-02-17 13:46 48.94283 9.87387 33839 ft 353 kts 341°
2026-02-17 13:47 49.01459 9.84970 33833 ft 354 kts 341°
2026-02-17 13:47 49.06266 9.83343 33836 ft 354 kts 341°
2026-02-17 13:48 49.11085 9.81712 33827 ft 355 kts 341°
2026-02-17 13:48 49.15808 9.80112 33829 ft 355 kts 341°
2026-02-17 13:49 49.20633 9.78468 33824 ft 356 kts 341°
2026-02-17 13:49 49.25472 9.76819 33824 ft 356 kts 341°
2026-02-17 13:50 49.30318 9.75159 33805 ft 357 kts 341°
2026-02-17 13:51 49.37603 9.72670 33817 ft 358 kts 341°
2026-02-17 13:51 49.42467 9.71004 33801 ft 358 kts 341°
2026-02-17 13:52 49.47277 9.69350 33809 ft 359 kts 341°
2026-02-17 13:52 49.52056 9.67704 33811 ft 360 kts 341°
2026-02-17 13:53 49.56944 9.66015 33814 ft 360 kts 341°
2026-02-17 13:53 49.61844 9.64322 33817 ft 361 kts 341°
2026-02-17 13:54 49.66758 9.62619 33820 ft 362 kts 341°
2026-02-17 13:54 49.71631 9.60927 33817 ft 363 kts 341°
2026-02-17 13:55 49.79039 9.58353 33815 ft 364 kts 341°
2026-02-17 13:55 49.83980 9.56625 33815 ft 364 kts 341°
2026-02-17 13:56 49.88918 9.54902 33813 ft 364 kts 341°
2026-02-17 13:56 49.93807 9.53183 33811 ft 364 kts 341°
2026-02-17 13:57 49.98765 9.51439 33813 ft 365 kts 341°
2026-02-17 13:57 50.03728 9.49698 33817 ft 366 kts 340°
2026-02-17 13:58 50.08262 9.46602 33809 ft 356 kts 323°
2026-02-17 13:59 50.14042 9.39339 33804 ft 356 kts 320°
2026-02-17 13:59 50.17902 9.34476 33805 ft 356 kts 320°
2026-02-17 14:00 50.21754 9.29610 33811 ft 356 kts 320°
2026-02-17 14:00 50.25600 9.24737 33814 ft 356 kts 320°
2026-02-17 14:01 50.29441 9.19849 33816 ft 356 kts 320°
2026-02-17 14:01 50.33278 9.14945 33819 ft 356 kts 320°
2026-02-17 14:02 50.37110 9.10047 33821 ft 356 kts 320°
2026-02-17 14:02 50.40259 9.06008 33824 ft 356 kts 320°
2026-02-17 14:03 50.45927 8.98721 33828 ft 355 kts 320°
2026-02-17 14:03 50.49752 8.93796 33826 ft 355 kts 320°
2026-02-17 14:04 50.53572 8.88882 33837 ft 355 kts 320°
2026-02-17 14:04 50.57483 8.84144 33843 ft 355 kts 322°
2026-02-17 14:05 50.61434 8.79488 33842 ft 355 kts 322°
2026-02-17 14:05 50.65367 8.74811 33837 ft 354 kts 321°
2026-02-17 14:06 50.69251 8.70124 33834 ft 354 kts 321°
2026-02-17 14:07 50.75066 8.63088 33828 ft 354 kts 321°
2026-02-17 14:07 50.78971 8.58343 33829 ft 354 kts 321°
2026-02-17 14:08 50.82846 8.53631 33827 ft 353 kts 321°
2026-02-17 14:08 50.84793 8.51258 33148 ft 355 kts 321°
2026-02-17 14:08 50.86750 8.48874 32293 ft 355 kts 321°
2026-02-17 14:08 50.88711 8.46485 31591 ft 356 kts 321°
2026-02-17 14:09 50.90676 8.44088 30894 ft 356 kts 321°
2026-02-17 14:09 50.92605 8.41736 30234 ft 356 kts 321°
2026-02-17 14:09 50.94573 8.39333 29399 ft 358 kts 321°
2026-02-17 14:09 50.96542 8.36923 28596 ft 358 kts 321°
2026-02-17 14:10 50.98476 8.34551 27818 ft 358 kts 321°
2026-02-17 14:10 51.00448 8.32135 27045 ft 358 kts 321°
2026-02-17 14:10 51.02518 8.29874 26036 ft 366 kts 327°
2026-02-17 14:11 51.07036 8.25849 24064 ft 378 kts 327°
2026-02-17 14:11 51.09356 8.23778 23023 ft 384 kts 327°
2026-02-17 14:11 51.11701 8.21689 22080 ft 386 kts 328°
2026-02-17 14:11 51.14041 8.19611 21347 ft 383 kts 328°
2026-02-17 14:12 51.16358 8.17557 20629 ft 380 kts 328°
2026-02-17 14:12 51.18660 8.15510 19912 ft 378 kts 328°
2026-02-17 14:12 51.20953 8.13466 19191 ft 376 kts 328°
2026-02-17 14:12 51.23228 8.11429 18506 ft 374 kts 328°
2026-02-17 14:13 51.25495 8.09394 17776 ft 373 kts 328°
2026-02-17 14:13 51.27747 8.07369 17093 ft 371 kts 327°
2026-02-17 14:13 51.29988 8.05351 16461 ft 368 kts 327°
2026-02-17 14:13 51.32184 8.03380 15838 ft 366 kts 327°
2026-02-17 14:14 51.34392 8.01400 15231 ft 363 kts 327°
2026-02-17 14:14 51.36631 7.99383 14810 ft 377 kts 327°
2026-02-17 14:14 51.38878 7.97349 14034 ft 382 kts 327°
2026-02-17 14:15 51.43329 7.92991 12739 ft 367 kts 316°
2026-02-17 14:15 51.44997 7.89979 12105 ft 358 kts 302°
2026-02-17 14:15 51.46096 7.86447 11464 ft 353 kts 289°
2026-02-17 14:15 51.46568 7.82634 11050 ft 344 kts 275°
2026-02-17 14:16 51.46441 7.78890 10917 ft 331 kts 262°
2026-02-17 14:16 51.45891 7.75458 10782 ft 318 kts 257°
2026-02-17 14:16 51.45300 7.72123 10650 ft 304 kts 257°
2026-02-17 14:16 51.44730 7.68935 10520 ft 291 kts 257°
2026-02-17 14:17 51.44188 7.65939 10392 ft 280 kts 257°
2026-02-17 14:17 51.43656 7.63008 10264 ft 269 kts 258°
2026-02-17 14:17 51.43141 7.60162 10020 ft 263 kts 258°
2026-02-17 14:17 51.42638 7.57362 9767 ft 260 kts 258°
2026-02-17 14:18 51.42144 7.54587 9629 ft 258 kts 260°
2026-02-17 14:18 51.41899 7.51764 9487 ft 254 kts 270°
2026-02-17 14:18 51.41810 7.49031 9351 ft 254 kts 270°
2026-02-17 14:19 51.41597 7.43367 8661 ft 256 kts 270°
2026-02-17 14:19 51.41490 7.40527 8251 ft 254 kts 270°
2026-02-17 14:19 51.41379 7.37696 7816 ft 253 kts 269°
2026-02-17 14:19 51.41270 7.34904 7478 ft 249 kts 270°
2026-02-17 14:20 51.41166 7.32205 6905 ft 248 kts 270°
2026-02-17 14:20 51.41060 7.29445 6370 ft 246 kts 270°
2026-02-17 14:20 51.40954 7.26763 5819 ft 244 kts 269°
2026-02-17 14:20 51.40850 7.24033 5315 ft 240 kts 269°
2026-02-17 14:21 51.40752 7.21447 5004 ft 237 kts 269°
2026-02-17 14:21 51.40654 7.19025 4596 ft 236 kts 269°
2026-02-17 14:21 51.40551 7.16401 4160 ft 236 kts 269°
2026-02-17 14:21 51.40445 7.13805 3997 ft 227 kts 269°
2026-02-17 14:22 51.40338 7.11359 3940 ft 213 kts 269°
2026-02-17 14:22 51.40151 7.06805 3814 ft 202 kts 270°
2026-02-17 14:23 51.39978 7.02418 3634 ft 192 kts 269°
2026-02-17 14:23 51.39717 7.00321 3364 ft 194 kts 253°
2026-02-17 14:23 51.39001 6.98479 3105 ft 195 kts 239°
2026-02-17 14:23 51.38210 6.96816 3015 ft 178 kts 240°
2026-02-17 14:24 51.37516 6.95358 2941 ft 156 kts 242°
2026-02-17 14:24 51.36876 6.94000 2716 ft 149 kts 241°
2026-02-17 14:24 51.36266 6.92708 2512 ft 143 kts 241°
2026-02-17 14:24 51.35692 6.91492 2333 ft 138 kts 241°
2026-02-17 14:25 51.35116 6.90273 2152 ft 137 kts 240°
2026-02-17 14:25 51.34549 6.89074 1940 ft 134 kts 240°
2026-02-17 14:25 51.34262 6.88468 1841 ft 134 kts 240°
2026-02-17 14:25 51.33902 6.87714 1724 ft 133 kts 240°
2026-02-17 14:26 51.33346 6.86536 1534 ft 133 kts 240°
2026-02-17 14:26 51.32787 6.85357 1345 ft 133 kts 240°
2026-02-17 14:26 51.32226 6.84174 1136 ft 134 kts 238°
2026-02-17 14:27 51.31098 6.81782 751 ft 136 kts 237°
2026-02-17 14:27 51.30521 6.80579 572 ft 137 kts 237°
2026-02-17 14:27 51.29957 6.79405 390 ft 135 kts 236°
2026-02-17 14:27 51.29393 6.78202 199 ft 136 kts 235°
2026-02-17 14:28 51.28858 6.77073 126 ft 110 kts 232°
2026-02-17 14:28 51.28508 6.76345 124 ft 51 kts 233°
2026-02-17 14:28 51.28345 6.76066 124 ft 25 kts 206°
2026-02-17 14:28 51.28230 6.76056 128 ft 11 kts 165°
2026-02-17 14:29 51.28213 6.76067 125 ft 0 kts 152°
2026-02-17 14:30 51.28200 6.76079 126 ft 6 kts 145°
2026-02-17 14:30 51.28197 6.76164 127 ft 9 kts 59°
2026-02-17 14:31 51.28121 6.76378 126 ft 12 kts 126°
2026-02-17 14:31 51.28075 6.76439 124 ft 3 kts 144°
2026-02-17 14:31 51.28060 6.76447 125 ft 2 kts 176°
2026-02-17 14:31 51.28032 6.76435 129 ft 5 kts 204°
2026-02-17 14:32 51.28023 6.76427 126 ft 2 kts 208°
2026-02-17 14:32 51.28016 6.76421 127 ft 0 kts 208°